Location: Reutlingen
(48.4911°N, 9.2587°E)
Time: 08:33:43
(UTC+01:00)

ISS - Pass Details

Date: 14 November 2017
Orbit: 402 x 407 km, 51.6° (Epoch: 23 November)

Event Time Altitude Azimuth Distance (km) Brightness Sun altitude
Exits shadow 05:45:06 52° 257° (WSW) 509 -3.8 -17.2°
Maximum altitude 05:45:38 64° 207° (SSW) 451 -3.8 -17.1°
Drops below altitude 10° 05:48:52 10° 125° (SE) 1,452 0.0 -16.6°
Sets 05:50:57 0° 122° (ESE) 2,308 1.3 -16.3°
